Orbital Elements at Epoch 2459200.5 (2020-Dec-17.0) TDB
Reference: JPL 17 (heliocentric ecliptic J2000)
Element | Value | Uncertainty (1-sigma) | Units |
e | .1036363953405343 | 4.225e-08 | |
a | 2.979417755672255 | 2.2707e-08 | au |
q | 2.670641639260798 | 1.2402e-07 | au |
i | 11.07398443343365 | 9.0935e-06 | deg |
node | 196.514594829769 | 2.1566e-05 | deg |
peri | 101.4352683746549 | 6.1269e-05 | deg |
M | 300.2898849371888 | 6.2031e-05 | deg |
tp | 2459512.059455786290 (2021-Oct-24.55945579) | 0.00032585 | TDB |
period | 1878.432221493423 5.14 | 2.1474e-05 5.879e-08 | d yr |
n | .1916491826965078 | 2.1909e-09 | deg/d |
Q | 3.288193872083712 | 2.506e-08 | au |
|
| | Orbit Determination Parameters
Additional Information
|